Flag for Denmark Weather past 2 weeks in Randers, Denmark

Now
41 °F

Quite cool.


Feels Like: 36 °F
Forecast: 36 / 42 °F
Wind: 7 mph from Southwest

Location: Tirstrup

Current Time: Mar 1, 2015 at 11:03:06 PM

Latest Report: Mar 1, 2015 at 10:20 PM


Visibility: N/A

Pressure: 29.30 "Hg

Humidity: 81%

Dew point: 36 °F

Location of RandersLocation

Historic Weather in Randers — Graph

°F

Randers temperature yesterday

Maximum temperature yesterday: 43 °F (at 2:20 PM)
Minimum temperature yesterday: 28 °F (at 1:50 AM)
Average temperature yesterday: 36 °F

Past Weeks' High & Low Weather Summary

 TemperatureHumidityPressure
High46 °F (Feb 18, 11:20 AM)93% (Feb 20, 9:20 AM)30.48 "Hg (Feb 20, 9:20 AM)
Low28 °F (Feb 28, 1:50 AM)57% (Feb 18, 11:20 AM)29.15 "Hg (Feb 23, 9:20 AM)
Average38 °F81%29.85 "Hg
* Reported Feb 14 9:20 PM — Mar 1 9:20 PM, Randers, Weather by CustomWeather, © 2015

Note: Actual official high and low records may vary slightly from our data, if they occured in-between our weather recording intervals... More about our weather records

Advertising

Randers weather history for previous 24 hours

 ConditionsComfort  
Time TempWeatherWind HumidityBarometerVisibility
9:20 PM
Sun, Mar 1
41 °FPartly cloudy.7 mph81%29.30 "HgN/A
8:20 PM41 °FPassing clouds.8 mph81%29.30 "HgN/A
7:50 PM41 °FPassing clouds.8 mph81%29.30 "HgN/A
7:20 PM41 °FSprinkles. Passing clouds.9 mph81%29.30 "Hg4 mi
6:50 PM41 °FPartly cloudy.10 mph87%29.27 "HgN/A
6:20 PM41 °FSprinkles. Partly cloudy.8 mph87%29.27 "HgN/A
5:50 PM41 °FSprinkles. Partly cloudy.10 mph87%29.27 "HgN/A
5:20 PM41 °FSprinkles. Cloudy.9 mph87%29.27 "HgN/A
4:20 PM43 °FSprinkles. Cloudy.9 mph81%29.27 "HgN/A
3:50 PM45 °FQuite cool.7 mph76%29.27 "HgN/A
3:20 PM45 °FQuite cool.9 mph81%29.27 "HgN/A
2:50 PM45 °FSprinkles. Cloudy.12 mph81%29.27 "HgN/A
2:20 PM45 °FPartly sunny.8 mph81%29.27 "Hg5 mi
1:50 PM43 °FBroken clouds.8 mph87%29.27 "HgN/A
1:20 PM43 °FPartly sunny.8 mph87%29.24 "HgN/A
12:50 PM41 °FLow clouds.10 mph87%29.27 "Hg3 mi
12:20 PM39 °FLow clouds.12 mph93%29.27 "Hg4 mi
11:50 AM39 °FSprinkles. Low clouds.13 mph87%29.27 "Hg4 mi
11:20 AM37 °FLow clouds.12 mph93%29.27 "Hg6 mi
10:50 AM37 °FLow clouds.13 mph93%29.27 "Hg4 mi
10:20 AM37 °FSprinkles. Low clouds.14 mph93%29.30 "Hg4 mi
9:50 AM37 °FSprinkles. Fog.13 mph87%29.30 "Hg2 mi
9:20 AM36 °FLight rain. Low clouds.15 mph93%29.30 "Hg4 mi
8:50 AM37 °FLight rain. Fog.16 mph87%29.30 "Hg2 mi
8:20 AM36 °FLight rain. Partly sunny.16 mph87%29.33 "Hg2 mi
7:50 AM36 °FLight rain. Low clouds.14 mph87%29.33 "Hg4 mi
7:20 AM36 °FLight rain. Low clouds.14 mph87%29.36 "Hg3 mi
6:50 AM36 °FLight rain. Low clouds.14 mph87%29.39 "Hg4 mi
6:20 AM36 °FDrizzle. Mostly cloudy.14 mph87%29.39 "HgN/A
5:50 AM36 °FLight rain. Overcast.12 mph87%29.42 "Hg6 mi
5:20 AM37 °FSprinkles. Overcast.13 mph81%29.45 "Hg3 mi
4:50 AM37 °FSprinkles. Passing clouds.14 mph81%29.45 "HgN/A
4:20 AM37 °FLight rain. Overcast.10 mph81%29.47 "HgN/A
3:50 AM39 °FPassing clouds.10 mph70%29.47 "HgN/A
3:20 AM39 °FPassing clouds.12 mph70%29.50 "HgN/A
2:50 AM39 °FPassing clouds.12 mph70%29.53 "HgN/A
2:20 AM39 °FPassing clouds.10 mph70%29.56 "HgN/A
1:50 AM39 °FPassing clouds.10 mph70%29.59 "HgN/A
1:20 AM39 °FPassing clouds.10 mph70%29.59 "HgN/A
12:50 AM39 °FPassing clouds.12 mph70%29.62 "HgN/A
12:20 AM39 °FPassing clouds.12 mph70%29.65 "HgN/A
11:50 PM
Sat, Feb 28
39 °FPassing clouds.12 mph70%29.65 "HgN/A
11:20 PM39 °FPassing clouds.12 mph70%29.68 "HgN/A
Weather by CustomWeather, © 2015

See weather overviewHow to use our weather pages